Location: Cosy Dell
(34.2789°N, 117.4537°W)
Time: 20:04:01
(UTC+00:00)

Cosmos 2058 - Pass Details

Date: 14 July 2020
Orbit: 562 x 584 km, 82.5° (Epoch: 13 August)

Event Time Altitude Azimuth Distance (km) Brightness Sun altitude
Exits shadow 05:46:06 27° 255° (WSW) 1,119 4.5 -26.2°
Maximum altitude 05:47:04 30° 281° (WNW) 1,039 4.5 -26.3°
Drops below altitude 10° 05:50:43 10° 343° (NNW) 1,873 6.4 -26.7°
Sets 05:53:06 0° 355° (N) 2,771 7.4 -27.0°
